Llagostera





Hora UTC 16:35
Temperatura 29.1 ºC
Humitat 44.0 %
Pressió 1017.2 hPa
Pluja 0.0 mm
Velocitat vent 14.5 km/h
Direcció vent

Dades diàries 2020-07-05



Hora UTC (hivern +1h; estiu +2h)
Temperatura (ºC) Humitat (%) Pressió (hPa) Velocitat vent (km/h) Precipitació (mm)
Hora UTC Aire Humitat Pressió Vel. Dir. Vel. Max Dir. Intent. màx 5 min.
00:05 16.3 93.0 1021.7 0.0 0.0 0.0
00:10 16.3 93.0 1021.7 0.0 0.0 0.0
00:15 16.1 93.0 1021.7 0.0 0.0 0.0
00:20 15.9 92.0 1021.7 0.0 0.0 0.0
00:25 15.8 93.0 1021.6 0.0 0.0 0.0
00:30 15.6 92.0 1021.6 0.0 0.0 0.0
00:35 15.5 93.0 1021.5 0.0 0.0 0.0
00:40 15.6 93.0 1021.5 0.0 0.0 0.0
00:45 15.5 93.0 1021.4 0.0 0.0 0.0
00:50 15.5 93.0 1021.4 0.0 0.0 0.0
00:55 15.5 93.0 1021.3 0.0 0.0 0.0
01:00 15.4 94.0 1021.2 0.0 0.0 0.0
01:05 15.4 93.0 1021.3 0.0 0.0 0.0
01:10 15.3 93.0 1021.1 0.0 0.0 0.0
01:15 15.2 93.0 1021.1 0.0 0.0 0.0
01:20 15.1 93.0 1021.0 0.0 0.0 0.0
01:25 15.1 94.0 1021.0 0.0 0.0 0.0
01:30 15.1 94.0 1021.0 0.0 0.0 0.0
01:35 15.1 94.0 1021.0 0.0 0.0 0.0
01:40 15.0 94.0 1021.1 0.0 0.0 0.0
01:45 14.9 94.0 1020.9 0.0 0.0 0.0
01:50 14.9 94.0 1020.9 0.0 0.0 0.0
01:55 14.9 94.0 1020.9 0.0 0.0 0.0
02:00 14.9 94.0 1020.8 0.0 0.0 0.0
02:05 14.8 94.0 1020.8 0.0 0.0 0.0
02:10 14.7 94.0 1020.8 0.0 0.0 0.0
02:15 14.7 94.0 1020.7 0.0 0.0 0.0
02:20 14.7 94.0 1020.7 0.0 0.0 0.0
02:25 14.6 94.0 1020.7 0.0 0.0 0.0
02:30 14.6 94.0 1020.7 0.0 4.8 0.0
02:35 14.6 94.0 1020.7 1.6 4.8 0.0
02:40 14.6 94.0 1020.6 3.2 4.8 0.0
02:45 14.6 94.0 1020.6 1.6 4.8 0.0
02:50 14.6 95.0 1020.6 1.6 4.8 0.0
02:55 14.7 95.0 1020.6 0.0 4.8 0.0
03:00 14.7 95.0 1020.6 0.0 4.8 0.0
03:05 14.7 95.0 1020.7 0.0 4.8 0.0
03:10 14.7 95.0 1020.7 0.0 4.8 0.0
03:15 14.7 95.0 1020.7 0.0 4.8 0.0
03:20 14.8 95.0 1020.7 0.0 4.8 0.0
03:25 14.7 94.0 1020.7 0.0 4.8 0.0
03:30 14.6 95.0 1020.8 0.0 4.8 0.0
03:35 14.7 95.0 1020.7 0.0 4.8 0.0
03:40 14.7 95.0 1020.6 0.0 4.8 0.0
03:45 14.6 94.0 1020.8 0.0 4.8 0.0
03:50 14.5 95.0 1020.8 0.0 4.8 0.0
03:55 14.4 95.0 1020.8 0.0 4.8 0.0
04:00 14.2 94.0 1020.8 0.0 4.8 0.0
04:05 14.1 94.0 1020.8 0.0 4.8 0.0
04:10 14.1 95.0 1020.8 0.0 4.8 0.0
04:15 14.1 95.0 1020.7 1.6 4.8 0.0
04:20 14.0 95.0 1020.7 3.2 4.8 0.0
04:25 14.1 95.0 1020.7 1.6 4.8 0.0
04:30 14.1 95.0 1020.9 1.6 4.8 0.0
04:35 14.1 95.0 1020.9 0.0 4.8 0.0
04:40 14.2 95.0 1020.9 0.0 4.8 0.0
04:45 14.2 95.0 1020.9 0.0 4.8 0.0
04:50 14.3 95.0 1021.0 0.0 4.8 0.0
04:55 14.5 96.0 1021.0 0.0 4.8 0.0
05:00 14.7 96.0 1021.0 0.0 4.8 0.0
05:05 14.8 96.0 1021.1 0.0 4.8 0.0
05:10 15.0 96.0 1021.1 0.0 4.8 0.0
05:15 15.1 96.0 1021.1 0.0 4.8 0.0
05:20 15.3 96.0 1021.1 0.0 4.8 0.0
05:25 15.4 96.0 1021.1 0.0 4.8 0.0
05:30 15.7 96.0 1021.1 0.0 4.8 0.0
05:35 15.9 96.0 1021.1 0.0 4.8 0.0
05:40 16.2 96.0 1021.0 0.0 4.8 0.0
05:45 16.6 97.0 1021.1 0.0 4.8 0.0
05:50 16.7 96.0 1021.1 0.0 4.8 0.0
05:55 16.9 96.0 1021.0 0.0 4.8 0.0
06:00 17.2 96.0 1021.2 0.0 4.8 0.0
06:05 17.4 96.0 1021.1 0.0 4.8 0.0
06:10 17.6 96.0 1021.0 0.0 4.8 0.0
06:15 17.8 96.0 1021.1 0.0 4.8 0.0
06:20 18.1 96.0 1021.1 0.0 4.8 0.0
06:25 18.3 95.0 1021.2 1.6 4.8 0.0
06:30 18.5 95.0 1021.2 4.8 9.7 0.0
06:35 18.7 95.0 1021.2 4.8 9.7 0.0
06:40 18.8 95.0 1021.3 3.2 9.7 0.0
06:45 19.2 94.0 1021.3 3.2 9.7 0.0
06:50 19.3 94.0 1021.3 3.2 9.7 0.0
06:55 19.4 93.0 1021.4 3.2 9.7 0.0
07:00 19.6 93.0 1021.3 4.8 9.7 0.0
07:05 19.8 92.0 1021.3 4.8 9.7 0.0
07:10 20.0 92.0 1021.2 4.8 9.7 0.0
07:15 20.2 91.0 1021.3 4.8 9.7 0.0
07:20 20.5 91.0 1021.3 4.8 9.7 0.0
07:25 20.8 90.0 1021.3 4.8 9.7 0.0
07:30 21.2 89.0 1021.3 3.2 9.7 0.0
07:35 21.4 89.0 1021.3 4.8 9.7 0.0
07:40 21.7 89.0 1021.3 4.8 9.7 0.0
07:45 21.9 88.0 1021.3 6.4 11.3 0.0
07:50 22.3 88.0 1021.3 6.4 11.3 0.0
07:55 22.5 87.0 1021.3 4.8 11.3 0.0
08:00 22.7 87.0 1021.3 4.8 11.3 0.0
08:05 22.9 86.0 1021.4 4.8 11.3 0.0
08:10 23.2 86.0 1021.3 3.2 11.3 0.0
08:15 23.6 85.0 1021.4 3.2 11.3 0.0
08:20 23.8 84.0 1021.3 4.8 11.3 0.0
08:25 24.2 83.0 1021.2 3.2 11.3 0.0
08:30 24.6 82.0 1021.2 3.2 11.3 0.0
08:35 24.9 80.0 1021.2 1.6 11.3 0.0
08:40 24.9 81.0 1021.2 1.6 11.3 0.0
08:45 25.2 79.0 1021.1 1.6 11.3 0.0
08:50 25.6 78.0 1021.0 3.2 11.3 0.0
08:55 25.8 77.0 1020.9 3.2 11.3 0.0
09:00 26.3 78.0 1020.9 1.6 11.3 0.0
09:05 26.8 74.0 1020.8 1.6 11.3 0.0
09:10 27.1 69.0 1020.9 1.6 11.3 0.0
09:15 27.3 58.0 1020.8 3.2 11.3 0.0
09:20 27.7 57.0 1020.8 4.8 11.3 0.0
09:25 27.9 56.0 1020.8 3.2 11.3 0.0
09:30 28.1 54.0 1020.8 3.2 11.3 0.0
09:35 28.1 55.0 1020.8 3.2 11.3 0.0
09:40 28.2 54.0 1020.7 4.8 11.3 0.0
09:45 28.5 50.0 1020.7 4.8 12.9 0.0
09:50 28.5 52.0 1020.7 4.8 12.9 0.0
09:55 28.8 49.0 1020.6 4.8 12.9 0.0
10:00 28.8 52.0 1020.6 4.8 12.9 0.0
10:05 28.9 52.0 1020.4 3.2 12.9 0.0
10:10 29.2 49.0 1020.4 4.8 12.9 0.0
10:15 29.2 48.0 1020.4 6.4 12.9 0.0
10:20 29.2 47.0 1020.4 6.4 14.5 0.0
10:25 29.3 49.0 1020.3 4.8 14.5 0.0
10:30 29.6 48.0 1020.4 3.2 14.5 0.0
10:35 29.8 43.0 1020.3 3.2 14.5 0.0
10:40 29.8 42.0 1020.2 6.4 14.5 0.0
10:45 29.9 43.0 1020.2 6.4 14.5 0.0
10:50 30.1 42.0 1020.3 6.4 14.5 0.0
10:55 30.2 41.0 1020.2 6.4 14.5 0.0
11:00 30.3 40.0 1020.2 6.4 16.1 0.0
11:05 30.4 43.0 1020.1 6.4 16.1 0.0
11:10 30.4 39.0 1020.1 6.4 16.1 0.0
11:15 30.4 40.0 1020.1 6.4 16.1 0.0
11:20 30.4 38.0 1020.1 8.0 16.1 0.0
11:25 30.6 42.0 1020.0 6.4 16.1 0.0
11:30 30.7 39.0 1020.0 3.2 16.1 0.0
11:35 30.8 42.0 1019.9 6.4 16.1 0.0
11:40 30.8 39.0 1019.9 6.4 16.1 0.0
11:45 30.9 42.0 1019.8 6.4 16.1 0.0
11:50 31.1 42.0 1019.8 8.0 16.1 0.0
11:55 30.8 42.0 1019.7 8.0 16.1 0.0
12:00 30.8 45.0 1019.7 8.0 16.1 0.0
12:05 30.8 46.0 1019.7 8.0 19.3 0.0
12:10 30.8 44.0 1019.7 8.0 19.3 0.0
12:15 30.7 44.0 1019.6 9.7 19.3 0.0
12:20 30.6 45.0 1019.6 11.3 19.3 0.0
12:25 30.4 44.0 1019.6 11.3 20.9 0.0
12:30 30.4 46.0 1019.5 11.3 20.9 0.0
12:35 30.4 45.0 1019.5 9.7 20.9 0.0
12:40 30.7 45.0 1019.5 9.7 20.9 0.0
12:45 30.8 42.0 1019.5 8.0 20.9 0.0
12:50 30.7 46.0 1019.4 11.3 22.5 0.0
12:55 30.6 46.0 1019.5 12.9 22.5 0.0
13:00 30.4 43.0 1019.4 12.9 22.5 0.0
13:05 30.6 45.0 1019.3 12.9 24.1 0.0
13:10 30.2 44.0 1019.2 12.9 24.1 0.0
13:15 30.1 45.0 1019.3 14.5 24.1 0.0
13:20 29.9 45.0 1019.2 14.5 27.4 0.0
13:25 29.8 47.0 1019.2 14.5 29.0 0.0
13:30 29.9 47.0 1019.2 14.5 29.0 0.0
13:35 30.0 44.0 1019.1 14.5 29.0 0.0
13:40 29.9 44.0 1019.1 12.9 29.0 0.0
13:45 29.9 46.0 1018.9 12.9 29.0 0.0
13:50 30.1 48.0 1018.8 11.3 29.0 0.0
13:55 30.1 45.0 1018.8 12.9 29.0 0.0
14:00 30.1 45.0 1018.6 14.5 29.0 0.0
14:05 30.1 47.0 1018.6 12.9 29.0 0.0
14:10 29.9 46.0 1018.6 14.5 29.0 0.0
14:15 29.9 49.0 1018.6 14.5 29.0 0.0
14:20 30.1 47.0 1018.4 11.3 29.0 0.0
14:25 30.1 46.0 1018.5 11.3 29.0 0.0
14:30 30.2 45.0 1018.5 12.9 29.0 0.0
14:35 30.1 46.0 1018.4 12.9 29.0 0.0
14:40 30.2 45.0 1018.3 12.9 29.0 0.0
14:45 30.0 45.0 1018.2 14.5 29.0 0.0
14:50 29.8 45.0 1018.2 14.5 29.0 0.0
14:55 29.9 46.0 1018.2 14.5 29.0 0.0
15:00 30.0 46.0 1018.1 12.9 29.0 0.0
15:05 30.1 46.0 1018.1 12.9 29.0 0.0
15:10 29.9 45.0 1018.2 12.9 29.0 0.0
15:15 29.9 44.0 1018.1 12.9 29.0 0.0
15:20 29.9 44.0 1018.0 12.9 29.0 0.0
15:25 29.7 45.0 1018.0 14.5 29.0 0.0
15:30 29.7 45.0 1017.7 14.5 29.0 0.0
15:35 29.7 45.0 1017.6 12.9 29.0 0.0
15:40 29.7 45.0 1017.7 12.9 29.0 0.0
15:45 29.8 45.0 1017.6 11.3 29.0 0.0
15:50 29.8 42.0 1017.6 12.9 29.0 0.0
15:55 29.7 43.0 1017.5 14.5 29.0 0.0
16:00 29.6 46.0 1017.4 14.5 29.0 0.0
16:05 29.6 46.0 1017.5 11.3 29.0 0.0
16:10 29.5 46.0 1017.4 11.3 29.0 0.0
16:15 29.4 45.0 1017.3 11.3 29.0 0.0
16:20 29.4 45.0 1017.3 11.3 29.0 0.0
16:25 29.4 43.0 1017.3 11.3 29.0 0.0
16:30 29.2 43.0 1017.4 12.9 29.0 0.0
16:35 29.1 44.0 1017.2 14.5 29.0 0.0
Màxima 31.1 97.0 1021.7 14.5 29.0 0.0
Mínima 14.0 38.0 1017.2
Total 0.0